カタログに戻る

COSMOS 1818 COOLANT

運用中LEO
NORAD 36936·DEBRIS·🇷🇺 Russia

打ち上げ Feb 1, 1987 から Baikonur Cosmodrome

Loading…

次のパス (今後24時間)

TLE

古いSource: Space-Track

元期: Aug 22, 2026, 23:40 UTC

1 36936U 87011Q   26234.98666196  .00000643  00000-0  23383-3 0  9997
2 36936  65.0010 332.6879 0019967 281.4838  78.4008 14.40389015293618

AllMySatでCOSMOS 1818 COOLANTをリアルタイム追跡

Download on the App Store